[[{"header":{"parameterUnit":"m.s-1","parameterCategory":1,"la1":30.2992,"la2":30.254,"lo1":-89.0895,"lo2":-89.0443,"dy":0.0025,"dx":0.0025,"nx":19,"ny":19,"refTime":"2026-05-07T21:00:00:Z","depth":0,"parameterNumber":2,"parameterNumberName":"U-component_of_WINDS"},"data":[0,0,0,-5.3369,-5.3372,-5.3505,-5.3505,-5.3706,-5.3708,0,0,0,0,0,0,0,0,0,0,0,-5.3349,-5.3351,-5.3369,-5.3373,-5.3505,-5.3505,-5.3706,-5.3708,0,0,0,0,0,0,0,0,0,0,0,-5.3348,-5.3351,-5.3353,-5.3373,-5.3505,-5.3505,-5.3705,-5.3594,0,0,0,0,0,0,0,0,0,0,-5.346,-5.346,-5.335,-5.3353,-5.3374,-5.3505,-5.3505,-5.3588,-5.3601,-5.366,0,-5.3717,0,-5.3716,-5.3723,-5.3724,0,0,0,-5.3358,-5.345,-5.3468,-5.3354,-5.3376,-5.3505,-5.3441,-5.3595,-5.3609,-5.3677,-5.372,-5.3726,-5.372,-5.3725,-5.3726,-5.4115,-5.4118,0,0,-5.3351,-5.3383,-5.3458,-5.3479,-5.3461,-5.3437,-5.3445,-5.3603,-5.3652,-5.372,-5.373,-5.3723,-5.3727,-5.3728,-5.4113,-5.4116,0,0,0,-5.334,-5.3379,-5.3392,-5.3471,-5.3493,-5.3441,-5.3451,-5.3645,-5.3647,-5.3732,-5.3725,-5.3728,-5.3731,-5.411,-5.4114,-5.4269,0,0,0,-5.3334,-5.3372,-5.339,-5.3411,-5.3491,-5.3571,-5.349,-5.3636,-5.3652,-5.3724,-5.3728,-5.3733,-5.4107,-5.4112,-5.4258,-5.4336,0,0,0,-5.3334,-5.3372,-5.3398,-5.3413,-5.3471,-5.3567,-5.3578,-5.3639,-5.3649,-5.3724,-5.3734,-5.4105,-5.4111,-5.4249,-5.4321,-5.4447,0,0,0,-5.3342,-5.3533,-5.3401,-5.3611,-5.347,-5.3663,-5.3576,-5.3718,-5.3801,-5.3729,-5.4108,-5.4113,-5.4246,-5.4311,-5.4438,-5.4559,-5.4613,0,0,-5.3601,-5.3565,-5.3687,-5.3572,-5.3797,-5.364,-5.3887,-5.3932,-5.391,-5.4048,-5.4057,-5.4262,-5.432,-5.4445,-5.4906,-5.4949,0,0,0,-5.3779,-5.3867,-5.3919,-5.4001,-5.4041,-5.4082,-5.4086,-5.4103,-5.4219,-5.3988,-5.4342,-5.4375,-5.4447,-5.4503,-5.454,-5.46,-5.4141,-5.4141,-5.414,-5.419,-5.4152,-5.435,-5.4329,-5.4409,-5.4413,-5.4474,-5.4498,-5.4435,-5.452,-5.4559,-5.4844,-5.4911,-5.4938,-5.5001,-5.4621,-5.4622,-5.4623,-5.4623,-5.4564,-5.4681,-5.4596,-5.4757,-5.4716,-5.4851,-5.4863,-5.4814,-5.4933,-5.481,-5.4872,-5.4738,-5.4986,-5.5039,-5.4634,-5.4632,-5.4631,-5.463,-5.4629,-5.4827,-5.4876,-5.4895,-5.501,-5.5103,-5.5075,-5.5195,-5.5153,-5.5115,-5.5176,-5.5214,-5.5211,-5.5202,-5.5198,-5.5199,-5.52,-5.52,-5.5201,-5.5202,-5.5091,-5.5108,-5.5213,-5.5274,-5.5322,-5.5379,-5.5387,-5.5433,-5.5472,-5.5432,-5.5433,-5.5362,-5.5019,-5.4932,-5.5217,-5.5214,-5.5212,-5.5211,-5.521,-5.5481,-5.5387,-5.5551,-5.5599,-5.5667,-5.5763,-5.5709,-5.5807,-5.5838,-5.5899,-5.5816,-5.5569,-5.5529,-5.55,-5.5428,-5.5824,-5.5824,-5.5824,-5.5824,-5.5702,-5.5679,-5.5837,-5.5917,-5.599,-5.596,-5.6146,-5.6155,-5.6149,-5.6166,-5.6104,-5.6006,-5.5978,-5.5954,-5.5915,-5.5847,-5.634,-5.6341,-5.6341,-5.5939,-5.5922,-5.6088,-5.6082,-5.6133,-5.6178,-5.6352,-5.6447,-5.642,-5.6361,-5.6179,-5.6157,-5.5998,-5.5949,-5.5883,-5.5823,-5.5698,0,0]},{"header":{"parameterUnit":"m.s-1","parameterCategory":1,"la1":30.2992,"la2":30.254,"lo1":-89.0895,"lo2":-89.0443,"dy":0.0025,"dx":0.0025,"nx":19,"ny":19,"refTime":"2026-05-07T21:00:00:Z","depth":0,"parameterNumber":3,"parameterNumberName":"V-component_of_WINDS"},"data":[0,0,0,2.1809,2.181,2.187,2.187,2.1936,2.1937,0,0,0,0,0,0,0,0,0,0,0,2.1787,2.1788,2.1809,2.181,2.187,2.187,2.1936,2.1937,0,0,0,0,0,0,0,0,0,0,0,2.1787,2.1787,2.1788,2.1811,2.187,2.187,2.1936,2.1894,0,0,0,0,0,0,0,0,0,0,2.1838,2.1814,2.1787,2.1788,2.1811,2.187,2.187,2.1892,2.1897,2.1906,0,2.1914,0,2.1927,2.1941,2.1941,0,0,0,2.1813,2.181,2.1831,2.1788,2.1811,2.187,2.1844,2.1895,2.19,2.1912,2.1915,2.1918,2.1928,2.1941,2.1942,2.1989,2.1989,0,0,2.181,2.1795,2.1827,2.1834,2.1826,2.1842,2.1846,2.1898,2.19,2.1915,2.192,2.1929,2.1942,2.1942,2.1989,2.1989,0,0,0,2.1799,2.1793,2.1812,2.1831,2.1842,2.1843,2.1848,2.1898,2.1905,2.192,2.193,2.1942,2.1943,2.1989,2.1989,2.198,0,0,0,2.1797,2.1786,2.181,2.1802,2.1841,2.1871,2.1846,2.1902,2.1908,2.1929,2.1942,2.1943,2.1989,2.1989,2.198,2.1978,0,0,0,2.1785,2.1785,2.1792,2.1801,2.1826,2.1871,2.1881,2.1904,2.1914,2.1941,2.1944,2.1989,2.1989,2.198,2.1978,2.1987,0,0,0,2.1767,2.1782,2.1792,2.1812,2.1825,2.1866,2.1881,2.1911,2.1934,2.1942,2.1989,2.1989,2.198,2.1978,2.1986,2.1991,2.1991,0,0,2.1777,2.1783,2.1796,2.1806,2.1841,2.1858,2.1891,2.1924,2.1939,2.1971,2.1972,2.198,2.1978,2.1986,2.2001,2.2001,0,0,0,2.1794,2.1803,2.1816,2.1838,2.1865,2.1888,2.1919,2.1931,2.196,2.1953,2.1986,2.1985,2.1991,2.1993,2.1994,2.1999,2.199,2.199,2.199,2.1786,2.1807,2.183,2.1859,2.188,2.1912,2.1931,2.1953,2.1966,2.1973,2.1982,2.1989,2.1992,2.1992,2.1997,2.1987,2.1987,2.1987,2.1987,2.1803,2.1819,2.1839,2.1869,2.189,2.1915,2.1947,2.1955,2.1981,2.1983,2.1989,2.1989,2.1992,2.1998,2.1986,2.1986,2.1987,2.1987,2.1987,2.18,2.1811,2.1828,2.1864,2.1888,2.1915,2.194,2.1958,2.1975,2.1981,2.1993,2.1993,2.1995,2.1985,2.1985,2.1986,2.1986,2.1986,2.1986,2.179,2.1809,2.1828,2.186,2.1878,2.1903,2.1936,2.1953,2.1976,2.1988,2.1988,2.2,2.1989,2.1985,2.1986,2.1986,2.1986,2.1986,2.1986,2.1798,2.18,2.1829,2.1847,2.1887,2.191,2.1934,2.1967,2.1983,2.1995,2.2006,2.1995,2.2001,2.2001,2.1998,2.2002,2.2002,2.2002,2.2002,2.1795,2.1801,2.1836,2.1863,2.1891,2.1917,2.1948,2.1975,2.2002,2.2014,2.2016,2.2014,2.2013,2.202,2.2019,2.2017,2.2025,2.2025,2.2025,2.1801,2.1811,2.1835,2.1864,2.1897,2.1925,2.1955,2.1984,2.2015,2.2027,2.2023,2.2022,2.2019,2.2017,2.2027,2.2026,2.2022,0,0]}]]